Starlink 31419

operational
NORAD ID: 59368 Int'l Des: 2024-060 Owner: SPXS Country: US Constellation: starlink
LEOCIRCULAR

Über Starlink 31419

Beschreibung wird geladen...

Live-Position

3D-Globus wird geladen...

Nächste Überflüge

Höhenverlauf

Altitude vs Time

uPlot chart will show altitude changes over time

Zweizeiliger Elementsatz

1 59368U 24060W 26036.38655061 .00001426 00000-0 61337-4 0 9991
2 59368 42.9995 82.1804 0001531 185.7311 174.3524 15.27581232105121
Epoch: 5. Feb. 2026 • Age: 12 hours

Aktueller Status

Höhe 496.2 km
Geschwindigkeit 7.62 km/s
Subsatellitenpunkt -43.13°S, 110.74°W
Startdatum 31. März 2024
Alter 1.8 years
Typ internet

Technische Details

Klassifizierung Payload
Masse 730.00 kg
Trockenmasse 700.00 kg
Gesamtmasse 730.00 kg
Länge 0.30 m
Durchmesser 4.10 m
Spannweite 29.00 m
Form Box + pan
Hersteller SPXS
Bus-Typ Starlink V2M
Phasenstatus In Orbit
Besitzer/Staat SPXS/US

Große Konstellationen

Loading constellations...